Satellite-Ground Cal/Val Region Overpasses Predictions

Prediction of Satellite NPP Overpassing Cal/Val Region: PacNW

Region Location: (Latitude: 10.00, Longitude: 139.50) to (Latitude: 22.70, Longitude: 165.60).

Table of predicted overpasses for the next 14.0 days since TLE Epoch: 9/14/2015
Interval Starting Time Starting Location Ending Time Ending Location
1 09/14/2015 15:01:46 ( 22.70, 160.32) 09/14/2015 15:05:22 ( 10.02, 157.31)
2 09/15/2015 02:13:35 ( 19.72, 165.59) 09/15/2015 02:14:25 ( 22.65, 164.86)
3 09/15/2015 03:52:20 ( 10.04, 142.48) 09/15/2015 03:55:54 ( 22.60, 139.50)
4 09/15/2015 14:42:43 ( 22.66, 165.07) 09/15/2015 14:46:18 ( 10.03, 162.08)
5 09/15/2015 16:24:13 ( 22.65, 139.70) 09/15/2015 16:24:26 ( 21.89, 139.51)
6 09/16/2015 03:33:17 ( 10.02, 147.25) 09/16/2015 03:36:53 ( 22.70, 144.24)
7 09/16/2015 16:05:10 ( 22.67, 144.46) 09/16/2015 16:08:45 ( 10.04, 141.47)
8 09/17/2015 03:14:14 ( 10.06, 152.00) 09/17/2015 03:17:49 ( 22.68, 149.00)
9 09/17/2015 15:46:06 ( 22.69, 149.23) 09/17/2015 15:49:42 ( 10.00, 146.22)
10 09/18/2015 02:55:11 ( 10.04, 156.76) 09/18/2015 02:58:46 ( 22.66, 153.77)
11 09/18/2015 15:27:04 ( 22.65, 153.98) 09/18/2015 15:30:39 ( 10.02, 150.98)
12 09/19/2015 02:36:08 ( 10.02, 161.53) 09/19/2015 02:39:44 ( 22.70, 158.52)
13 09/19/2015 15:08:00 ( 22.66, 158.74) 09/19/2015 15:11:35 ( 10.04, 155.75)
14 09/20/2015 02:17:56 ( 13.06, 165.59) 09/20/2015 02:20:40 ( 22.68, 163.28)
15 09/20/2015 03:58:34 ( 10.01, 140.91) 09/20/2015 04:00:17 ( 16.06, 139.51)
16 09/20/2015 14:48:57 ( 22.68, 163.51) 09/20/2015 14:52:32 ( 10.06, 160.51)
17 09/21/2015 03:39:32 ( 10.05, 145.67) 09/21/2015 03:43:07 ( 22.67, 142.67)
18 09/21/2015 14:33:04 ( 11.49, 165.60) 09/21/2015 14:33:29 ( 10.02, 165.26)
19 09/21/2015 16:11:23 ( 22.69, 142.89) 09/21/2015 16:14:59 ( 10.00, 139.88)
20 09/22/2015 03:20:28 ( 10.03, 150.43) 09/22/2015 03:24:03 ( 22.66, 147.43)
21 09/22/2015 15:52:21 ( 22.64, 147.64) 09/22/2015 15:55:56 ( 10.02, 144.65)
22 09/23/2015 03:01:25 ( 10.02, 155.19) 09/23/2015 03:05:01 ( 22.70, 152.18)
23 09/23/2015 15:33:17 ( 22.66, 152.41) 09/23/2015 15:36:52 ( 10.04, 149.41)
24 09/24/2015 02:42:21 ( 10.00, 159.96) 09/24/2015 02:45:57 ( 22.68, 156.95)
25 09/24/2015 15:14:14 ( 22.68, 157.17) 09/24/2015 15:17:49 ( 10.05, 154.18)
26 09/25/2015 02:23:19 ( 10.05, 164.71) 09/25/2015 02:26:54 ( 22.67, 161.71)
27 09/25/2015 14:55:10 ( 22.69, 161.94) 09/25/2015 14:58:46 ( 10.01, 158.93)
28 09/26/2015 03:45:45 ( 10.04, 144.10) 09/26/2015 03:49:20 ( 22.66, 141.10)
29 09/26/2015 14:37:24 ( 18.19, 165.60) 09/26/2015 14:39:43 ( 10.02, 163.69)
30 09/26/2015 16:17:37 ( 22.69, 141.32) 09/26/2015 16:19:45 ( 15.18, 139.51)
31 09/27/2015 03:26:42 ( 10.03, 148.86) 09/27/2015 03:30:17 ( 22.65, 145.86)
32 09/27/2015 15:58:34 ( 22.65, 146.07) 09/27/2015 16:02:09 ( 10.03, 143.08)


NCC Satellite Cal/Val Overpasses Prediction Service
